Regional Weather Roundup
Issued by NWS Newport/Morehead, NC

Current Version | Previous Version | Graphics & Text | Print | Product List | Glossary Off
Versions: 1 2 3 4 5 6 7 8 9 10 11 12 13 14 15 16 17 18 19 20 21 22 23 24 25 26 27 28 29 30 31 32 33 34 35 36 37 38 39 40 41 42 43 44 45 46 47 48 49 50
000 ASUS42 KMHX 291725 RWRMHX WEATHER ROUNDUP FOR EASTERN NORTH CAROLINA NATIONAL WEATHER SERVICE NEWPORT/MOREHEAD CITY NC 100 PM EDT MON MAY 29 2017 NOTE: "FAIR" INDICATES FEW OR NO CLOUDS BELOW 12,000 FEET WITH NO SIGNIFICANT WEATHER AND/OR OBSTRUCTIONS TO VISIBILITY NCZ015>017-031-032-045>047-102-103-291800- NORTH COAST CITY SKY/WX TMP DP RH WIND PRES REMARKS EDENTON SUNNY 86 66 50 W6 29.95R ELIZABETH CITY SUNNY 84 70 62 W8 29.93R KITTY HAWK SUNNY 80 67 65 CALM 29.92S MANTEO NOT AVBL $$ NCZ045>047-081-094-103-104-291800- CENTRAL COAST CITY SKY/WX TMP DP RH WIND PRES REMARKS FRISCO SUNNY 84 69 60 VRB5 29.95R $$ NCZ095-097-098-100-101-291800- SOUTHERN COAST CITY SKY/WX TMP DP RH WIND PRES REMARKS BEAUFORT SUNNY 84 71 65 SW10 29.95R CEDAR ISLAND NOT AVBL JACKSONVILLE NOT AVBL PINEY ISLAND SUNNY N/A N/A N/A W10 29.95R WILMINGTON SUNNY 87 63 44 VRB5 29.96S $$ NCZ011>013-027>030-043-044-078>080-089-090>093-098-291800- COASTAL PLAIN CITY SKY/WX TMP DP RH WIND PRES REMARKS AHOSKIE NOT AVBL CLINTON SUNNY 87 66 48 SW7 29.96R ELIZABETHTOWN SUNNY 87 62 43 NW5 29.96S GOLDSBORO MOSUNNY 86 64 47 NW5 29.94S GREENVILLE SUNNY 86 63 45 NW8 29.97S HAVELOCK SUNNY 89 63 41 NW9 29.96R KENANSVILLE SUNNY 88 64 45 W3 29.95S KINSTON SUNNY 88 63 42 CALM 29.95F NEW BERN SUNNY 87 64 46 W12 29.96R RICHLANDS SUNNY 89 65 44 W9 29.96S ROCKY MOUNT SUNNY 85 63 47 SW5 29.95R WASHINGTON SUNNY 85 64 48 NW5 29.95R WHITEVILLE SUNNY 86 66 50 S5 29.97R $$ AMZ130-135-150-152-154-156-158-170-250-252-270-ANZ085-086-088-633-658-670-291800- MARINE OBSERVATIONS STATION/POSITION TIME TEMP WIND PRES WAVE SWELL AIR SEA DIR/SP/G HT/PER HT/PER (UTC) (F) (DEG/KT/KT) (MB) (FT/S) (FT/S) CHESAPEAKE LIGHT NOT AVBL 64 E VA BEACH 1650 65 65 290/ 4/ 6 1014.2 4/ 6 3/ 6 DUCK 1700 76 68 90/ 4/ 5 1013.1 2 E DUCK 1700 71 N/A 2/ 7 OREGON INLET 1700 81 74 310/ 9/ 11 1013.6 13E OREGON INLT 1648 70 N/A 3/ 6 3/ 6 HATTERAS CG 1700 80 75 260/ 7/ 8 1014.1 DIAMOND BUOY 1650 76 77 250/ 8/ 8 1014.3 3/ 6 3/ 6 CAPE LOOKOUT 1700 80 230/ 6/ 8 1014.2 BEAUFORT LAB 1700 82 74 220/ 4/ 9 1013.6 30 SE NEW RVR IN 1708 77 78 240/ 6/ 8 1015.0 30 SE NEW RVR IN 1713 78 N/A 3/ 5 27 SE WRIGHTSVLE 1708 77 77 200/ 6/ 8 1014.3 5 SE WRIGHTSVLE 1708 78 78 180/ 10/ 12 1014.4 225 S CAPE HAT 1650 78 77 220/ 14/ 16 1016.6 3/ 5 2/ 9 41 SE CHARLESTON 1710 77 77 240/ 8/ 10 1016.1 $$

USA.gov is the U.S. government's official web portal to all federal, state and local government web resources and services.